sat.trackr.live / text

‹ back to catalog

STARLINK-1335

NORAD 45581 · 2020-025BC

PAYLOAD ACTIVE UNKNOWN

§ Identity

Operator
Country
US
Launch date
2020-04-22
Launch site
AFETR
Launch vehicle
Mass (kg)
RCS (m²)

Purposes: comms

External: N2YO · Heavens-Above · Gunter

§ Orbital elements

Epoch: 2026-05-25T02:22:10.504416Z

Period
93.79 min
Inclination
53.1534°
Eccentricity
0.0004367
Mean motion
15.35311643 rev/d
Perigee alt
457.0 km
Apogee alt
463.0 km
Semi-major
6,838.1 km
B*
1.2537e-3
RAAN
79.1523°
Arg perigee
79.1092°
Mean anomaly
281.0402°
Rev number
33,724

§ Raw data

STARLINK-13351 45581U 20025BC  26145.09873269  .00043488  00000+0  12537-2 0  99902 45581  53.1534  79.1523 0004367  79.1092 281.0402 15.35311643337249

JSON: /api/v1/satellites/45581 · /tle

For live sub-satellite position, see the globe view (requires WebGL).

§ Visibility from observer

Set your observer location to see the next 7 days of passes ≥ 10°. The values pass through the URL so the page stays shareable.

No JS? Fill the form by hand. The geolocation button needs JavaScript.